Weather in Beauvechain

Belgium     50°46′49″N   4°46′26″E
temp.,
°C
wind,
m/s
gust,
m/s
humid.,
%
clouds,
%
prec.,
mm/h
press.,
hPa
HPBL,
m
16 april, fri
fri1623:00+2ne347068 0.0 103050
02:000ne348724 0.0 102948
05:000ne23885 0.0 102928
08:00+1nne268246 0.0 1029161
11:00+7ne4659100 0.0 10291020
14:00+9ne5748100 0.0 10281904
17:00+9ne465287 0.0 10271536
20:00+7nne22685 0.0 102620
17 april, sat
sat1723:00+4n4108073 0.0 1027222
02:00+2nne388494 0.0 1027136
05:00+1nne34865 0.0 102773
08:00+2nne27855 0.0 1027192
11:00+8nne57635 0.0 1027946
14:00+11nne575220 0.0 10251731
17:00+12nne66465 0.0 10231822
20:00+8nne336616 0.0 102346
18 april, sun
sun1823:00+7nne4871100 0.0 1024272
02:00+6n3677100 0.0 1024208
05:00+6n3681100 0.0 1023186
08:00+6nne2484100 0.0 1023206
11:00+8nne3377100 0.0 1024453
14:00+12n3364100 0.0 10231215
17:00+11nne4467100 0.3 10221010
20:00+9ne478468 0.5 1022292
19 april, mon
mon1923:00+7ne2393100 0.0 102396
02:00+7nne2294100 0.0 102250
05:00+6n1195100 0.0 102124
08:00+7n129599 0.0 102194
11:00+10ne227775 0.2 1020709
14:00+13ene236370 1.6 10181203
17:00+12ene337562 1.4 1017548
20:00+11ne227613 1.6 101613
20 april, tue
tue2023:00+7ene11835 0.0 101710
02:00+6sse11855 0.0 101610
05:00+5se11855 0.0 101510
08:00+7sse118259 0.0 101542
11:00+12ese1166100 0.0 1014578
14:00+15ssw015648 0.1 10131346
17:00+15sw2255100 0.3 10111314
20:00+12nw3475100 0.4 101164